Regional Weather Roundup
Issued by NWS

Home | Current Version | Previous Version | Graphics & Text | Print | Product List | Glossary On
Versions: 1 2 3 4 5 6 7 8 9 10 11 12 13 14 15 16 17 18 19 20 21 22 23 24 25 26 27 28 29 30 31 32 33 34 35 36 37 38 39 40 41 42 43 44 45 46 47 48 49 50
450
ASUS43 KLSX 121357
RWRMO

WEATHER SUMMARY FOR MISSOURI
NATIONAL WEATHER SERVICE SPRINGFIELD MO
800 AM CST FRI FEB 12 2016

NOTE: "FAIR" INDICATES FEW OR NO CLOUDS BELOW 12,000 FEET WITH NO
       SIGNIFICANT WEATHER AND/OR OBSTRUCTIONS TO VISIBILITY.
       CURRENT SKY AND/OR WEATHER CONDITIONS ARE NOT AVAILABLE FOR
       CHILLICOTHE AND FARMINGTON.

MOZ001>031-035>038-043-044-053-054-121500-
...NORTHERN AND WESTERN MISSOURI...

CITY           SKY/WX    TMP DP  RH WIND       PRES   REMARKS
KANSAS CTY INT CLOUDY    30  22  72 N13       30.34R WCI  20
LEE`S SUMMIT   CLOUDY    28  21  75 N10       30.33R WCI  19
ST JOSEPH      CLOUDY    29  22  75 N16       30.37R WCI  17
CHILLICOTHE      N/A     28  20  71 NW6       30.34R WCI  22

$$
MOZ066>068-077>081-088>096-101>105-121500-
...SOUTHWEST MISSOURI...

CITY           SKY/WX    TMP DP  RH WIND       PRES   REMARKS
SPRINGFIELD    CLEAR     28  22  78 NW3       30.23R
JOPLIN         CLEAR     27  23  85 CALM      30.28R

$$
MOZ032>034-039>042-045>050-055>058-069>072-121500-
...CENTRAL MISSOURI...

CITY           SKY/WX    TMP DP  RH WIND       PRES   REMARKS
COLUMBIA       NOT AVBL
JEFFERSON CITY CLOUDY    27  23  85 NW6       30.30R WCI  20
SEDALIA        CLOUDY    29  22  75 NW8       30.32R WCI  21

$$
MOZ051-052-059>065-121500-
...EAST CENTRAL MISSOURI...

CITY           SKY/WX    TMP DP  RH WIND       PRES   REMARKS
ST LOUIS INTL  CLOUDY    27  22  81 NW7       30.26R WCI  19

$$
MOZ072>076-082>087-097>100-106>115-121500-
...SOUTH CENTRAL AND SOUTHEAST MISSOURI...

CITY           SKY/WX    TMP DP  RH WIND       PRES   REMARKS
CAPE GIRARDEAU CLOUDY    30  25  81 N6        30.23S WCI  24
POPLAR BLUFF   CLOUDY    32  22  66 CALM      30.22R
WEST PLAINS    SUNNY     27  21  78 CALM      30.20S

$$



USA.gov is the U.S. government's official web portal to all federal, state and local government web resources and services.